Wind_Speed
29 29 25 22 22 24 25 26 27 29 30 29 28 27 26 24 22 23 23 24 24 24 24 25 26 26 25 25 23 22 21 21 20 19 18 16 14 13 12 11 11 11 10 8 8 8 8 7 6 5 5 8 12 12 11 11 12 12 16 20 21 21 20 19 18 16 16 15 14 14 14 14 14 14 13 12 11 10 8 8 7 7 7 7 8 9
30 27 24 24 26 27 28 29 30 30 31 30 30 30 29 28 26 25 24 24 25 25 26 27 27 27 27 26 25 24 24 24 23 23 21 19 17 15 13 12 12 11 9 7 8 7 7 7 6 5 5 7 11 13 12 12 12 12 16 20 21 22 22 21 20 18 17 16 15 14 14 14 14 13 12 12 11 10 8 7 7 7 7 7 9 9
27 25 25 28 30 30 30 30 31 31 31 31 32 31 31 30 30 29 28 26 25 25 27 28 27 27 26 26 26 26 26 26 25 25 24 22 19 17 16 14 13 11 9 9 10 9 9 9 8 7 7 8 10 13 12 12 11 11 15 19 22 23 23 21 21 19 16 15 13 13 12 12 13 12 11 11 10 9 8 8 8 8 8 8 9 10
23 24 28 32 32 31 31 31 32 32 32 31 31 30 30 31 32 33 31 28 25 26 28 28 27 25 24 24 25 26 26 26 26 25 24 22 21 19 17 16 14 13 12 12 12 11 11 10 9 8 8 8 8 11 11 11 11 11 15 20 22 24 24 21 20 18 15 12 12 11 10 10 10 11 11 11 11 10 9 9 9 9 9 9 10 10
22 25 30 33 33 33 32 32 32 32 31 30 29 28 28 30 32 33 33 31 28 28 28 27 26 23 22 23 24 24 24 24 24 24 23 21 20 19 17 14 12 13 14 14 14 14 13 12 12 11 10 9 8 11 12 12 11 12 16 21 22 24 25 22 20 17 13 12 11 10 9 10 11 11 12 12 12 11 10 10 10 10 10 10 11 12
25 27 30 31 31 32 32 32 32 31 29 28 27 25 26 28 29 32 34 33 31 30 29 29 26 22 21 22 23 22 21 22 23 23 21 19 17 16 17 16 13 13 14 14 14 14 13 14 14 12 11 10 9 11 13 14 12 11 16 20 22 24 25 23 20 17 14 13 13 13 13 14 14 14 14 13 12 11 11 10 10 10 11 11 12 12
27 29 29 29 29 30 31 32 32 31 29 27 25 24 26 27 28 31 34 34 32 32 32 30 27 24 23 23 24 22 21 22 22 21 19 17 16 15 15 16 15 14 14 14 14 13 12 12 12 12 12 12 11 11 13 14 12 11 14 18 21 23 24 22 21 19 16 15 15 16 16 16 15 14 13 12 12 11 11 10 10 10 11 11 12 12
30 31 30 29 29 29 30 30 31 31 28 25 24 25 27 28 29 31 34 34 33 34 34 31 28 27 25 23 24 23 22 21 20 18 16 16 15 14 14 15 15 15 15 14 14 14 13 12 12 12 13 13 12 11 12 13 13 12 14 18 20 23 24 21 20 19 18 17 17 18 17 16 14 13 12 12 12 12 11 11 11 11 11 11 12 11
33 33 30 29 29 28 27 29 31 31 28 25 27 29 30 30 31 33 34 33 33 35 34 31 30 29 26 24 23 22 21 18 16 14 14 14 14 14 15 15 16 16 15 14 14 15 16 15 14 13 13 13 11 10 12 14 15 14 15 17 20 23 24 21 20 19 18 18 17 17 16 15 14 12 12 12 11 11 11 12 12 12 12 12 12 12
35 34 32 31 29 27 27 29 31 30 28 29 32 33 33 33 33 34 34 33 34 35 33 32 31 29 27 26 24 22 18 14 13 13 12 12 12 12 14 16 17 17 14 12 13 16 18 18 17 16 14 12 10 10 11 14 15 14 14 16 19 23 24 22 20 20 19 18 16 15 14 13 13 13 12 12 12 12 12 12 12 12 12 12 12 11
35 33 33 33 30 29 29 29 29 29 31 34 35 34 34 35 34 35 35 34 35 34 31 31 31 29 28 27 23 19 16 14 13 13 12 10 10 11 12 14 16 17 15 13 13 15 18 19 18 16 14 12 10 9 9 11 14 15 14 15 19 23 25 23 21 20 19 18 16 14 13 12 13 13 13 13 13 13 13 13 12 12 13 12 12 11
34 34 34 34 32 31 31 30 28 30 34 36 36 35 36 36 36 36 36 37 37 32 30 31 31 30 29 26 23 21 20 18 16 16 15 13 13 14 14 14 16 17 17 16 15 16 18 18 16 14 12 12 10 8 7 9 13 15 15 15 18 23 25 24 23 21 20 19 16 14 13 13 14 14 15 15 15 14 13 13 13 13 13 13 13 12
35 35 35 35 34 33 32 31 29 31 34 35 36 36 37 38 38 38 38 38 37 31 29 30 31 30 29 27 26 26 25 22 21 22 20 19 18 18 18 17 17 18 18 18 17 16 17 17 16 14 12 11 10 8 8 9 12 15 16 16 17 22 25 25 24 22 21 19 17 15 13 14 15 15 15 15 15 14 13 13 13 13 13 13 13 12
36 36 35 35 35 34 34 33 32 32 33 34 35 37 38 39 40 40 39 39 37 32 30 30 31 31 29 29 29 28 26 25 25 25 23 22 20 19 19 19 19 19 19 20 19 17 16 17 17 16 15 14 12 11 10 10 12 16 18 17 18 21 25 26 25 24 22 20 18 16 14 15 16 16 16 15 15 14 14 14 13 12 12 12 11 11
35 35 36 36 35 35 35 34 34 33 33 34 35 36 39 40 40 39 39 38 36 34 32 32 32 31 29 29 29 29 29 27 27 25 23 20 19 19 19 18 16 16 17 20 22 20 18 17 16 16 16 15 15 15 13 12 12 15 18 19 19 21 25 27 26 25 23 22 20 17 16 16 16 16 16 16 15 14 14 14 13 13 12 11 11 10
34 35 36 36 36 36 36 36 35 34 34 35 35 36 39 40 40 40 39 39 38 36 35 35 34 32 30 29 29 30 30 29 27 24 21 20 18 18 18 15 14 14 14 17 21 23 21 19 17 16 16 16 17 16 15 13 13 14 18 20 21 22 25 27 27 26 25 23 21 19 18 17 17 16 16 15 15 15 15 14 14 13 13 12 11 11
33 34 35 36 36 37 37 37 37 36 36 36 36 37 37 37 38 40 41 40 39 39 39 38 37 34 31 30 31 32 31 31 29 25 22 23 21 19 17 15 15 14 13 15 19 23 24 22 19 17 17 17 17 16 15 15 14 15 17 21 23 23 25 27 28 28 27 25 23 21 20 19 18 16 16 16 16 16 15 15 14 14 13 13 13 12
32 33 35 36 36 37 38 38 38 37 38 38 37 38 37 36 38 40 41 41 41 41 42 41 39 38 35 33 33 34 33 32 31 28 26 26 24 22 20 18 16 15 15 17 19 22 24 23 21 20 18 18 17 17 16 16 17 17 17 20 23 24 25 27 29 30 29 27 24 22 21 20 19 18 17 17 17 16 16 15 15 15 14 15 14 13
31 33 34 35 36 37 38 38 39 39 39 39 39 39 39 39 41 40 41 42 42 43 44 42 41 40 38 34 34 35 35 34 32 31 30 29 26 25 24 22 20 17 16 18 18 19 21 22 22 21 20 20 18 18 18 18 19 18 17 18 21 25 27 29 31 31 30 29 27 24 23 22 21 20 18 18 17 16 16 15 15 15 16 16 15 15
30 32 33 35 36 37 38 38 39 39 40 40 40 40 40 41 42 42 43 43 42 43 45 44 43 42 40 36 35 36 37 35 33 32 32 31 29 28 28 26 24 21 17 16 16 16 17 20 21 22 23 24 22 20 20 19 18 18 17 17 19 24 27 29 30 31 31 31 29 27 25 24 22 21 19 18 17 16 17 16 16 16 17 17 16 16
29 31 33 34 35 37 37 38 39 39 39 40 40 41 41 41 42 43 44 44 44 44 45 45 45 45 42 40 37 37 37 37 35 33 33 34 32 31 31 28 27 25 21 18 17 16 16 19 22 24 25 26 25 23 21 20 18 18 17 16 17 21 25 28 29 30 31 31 31 30 28 26 25 23 21 19 18 17 17 17 16 16 17 17 17 17
27 30 32 34 35 37 38 38 39 39 39 39 40 41 42 42 42 43 44 45 45 45 45 46 47 46 44 43 41 39 38 38 37 36 35 35 35 34 32 30 28 27 25 24 22 20 18 20 23 25 27 26 24 23 22 20 19 18 16 16 16 18 22 26 28 30 31 32 32 31 30 28 27 25 23 21 19 18 18 17 17 17 16 16 17 18
26 28 31 34 36 37 37 38 38 39 39 39 40 41 42 42 42 43 44 45 45 46 46 46 47 47 46 45 44 42 41 39 38 38 37 36 35 34 33 31 30 28 29 29 28 25 23 23 26 29 29 28 26 25 24 22 20 18 17 17 16 16 19 24 28 30 31 32 32 32 31 30 29 27 25 22 21 20 19 18 18 17 16 17 18 18
27 28 31 34 36 37 37 38 38 38 38 39 39 40 41 41 42 43 43 44 45 46 46 47 47 48 46 45 45 45 44 42 40 38 38 38 37 36 34 33 32 31 31 32 32 30 27 26 28 30 31 31 30 28 27 24 22 21 20 18 16 16 18 23 28 30 31 32 33 34 33 32 31 29 27 25 23 22 22 21 20 19 18 18 18 18
29 31 32 34 36 37 38 39 39 38 39 39 40 40 41 41 42 43 43 44 44 45 46 46 47 48 46 45 45 45 44 43 41 39 38 38 38 37 34 33 34 34 34 35 35 34 31 30 29 30 31 33 33 31 30 28 26 24 22 20 18 18 19 23 27 30 31 33 34 35 35 34 32 31 30 29 27 26 26 25 23 22 21 21 20 19
31 32 33 35 37 38 40 41 41 41 40 40 41 42 42 42 43 43 44 44 45 45 45 45 46 47 46 45 46 45 43 42 41 39 38 38 39 38 35 34 35 35 36 38 38 36 34 33 32 31 32 33 34 34 32 31 30 28 27 25 23 22 22 24 26 29 32 33 34 35 35 35 34 32 32 31 30 30 29 28 26 25 24 23 22 21
30 32 34 36 38 39 40 41 42 43 43 42 42 43 43 44 44 44 44 44 45 45 45 45 46 46 45 45 46 45 43 41 39 38 37 39 39 38 36 36 35 35 36 37 38 38 37 36 35 33 32 32 34 35 34 33 32 31 29 28 26 25 24 25 26 29 32 34 35 35 35 34 34 33 33 33 33 32 31 30 28 27 26 25 24 24
27 29 31 34 37 39 41 41 42 43 44 45 44 44 45 45 45 45 46 46 46 46 46 46 46 46 45 44 45 45 44 42 39 36 36 38 39 38 38 37 36 36 36 35 37 38 39 38 38 36 34 33 34 36 37 36 34 33 31 30 29 28 26 25 26 28 31 33 35 35 35 34 34 34 35 35 34 34 32 30 29 28 27 26 25 24
24 26 28 30 33 37 40 41 42 43 44 45 46 46 46 46 47 47 47 47 46 46 47 47 47 46 46 45 44 45 45 43 40 37 36 37 38 38 39 39 38 38 36 35 36 38 39 40 39 39 37 35 34 36 38 38 38 36 35 34 32 31 29 27 27 27 29 32 34 35 36 36 36 36 36 36 36 35 33 32 31 30 29 27 25 25
25 25 26 28 30 32 36 40 42 43 44 45 46 46 47 47 48 48 48 48 47 47 47 48 47 46 46 45 44 44 44 44 41 38 38 39 39 40 41 41 40 39 38 37 38 39 40 40 40 40 40 37 35 36 38 39 39 38 36 36 35 34 33 30 28 28 29 30 33 36 38 39 39 39 39 38 37 36 35 34 33 32 31 29 27 27
28 28 29 29 30 30 32 36 39 43 45 46 47 47 47 48 48 48 49 49 49 48 49 49 48 47 46 45 45 44 45 45 43 40 40 41 43 44 43 42 42 41 40 40 40 41 41 41 40 41 41 40 38 37 38 40 40 38 37 37 37 36 35 33 31 30 29 30 32 36 39 40 41 41 40 40 39 38 37 36 36 34 33 31 30 29
30 31 31 32 32 33 33 34 36 39 43 46 48 49 48 49 49 49 49 49 49 50 51 50 49 48 47 46 45 45 45 45 44 42 43 44 46 47 46 44 43 43 42 42 43 43 43 42 41 41 42 41 40 39 40 41 41 40 39 39 39 38 37 36 34 32 31 32 34 37 39 41 42 42 42 41 40 40 39 38 37 36 35 33 32 31
31 32 33 34 34 35 36 36 37 37 40 44 48 51 51 50 50 50 50 50 50 51 52 52 51 50 49 48 47 46 46 47 46 45 45 47 48 50 49 46 45 45 45 44 45 45 45 44 43 42 43 43 42 41 41 42 43 43 42 41 41 40 39 37 35 33 32 32 33 34 36 38 40 42 43 42 42 42 41 40 38 37 36 35 34 34
29 31 33 34 35 36 37 39 39 39 40 43 46 50 53 54 53 52 53 52 52 52 54 54 53 51 51 50 49 48 48 49 48 47 48 49 50 52 52 49 47 47 47 46 46 47 46 46 45 44 45 46 45 43 42 43 44 44 44 43 43 42 41 39 36 34 33 32 32 31 30 32 34 36 39 41 43 43 43 41 40 38 37 37 36 36
23 25 28 30 31 32 34 37 40 42 43 44 46 48 53 56 57 56 55 55 55 54 55 55 55 54 53 53 52 50 50 50 50 50 50 51 52 53 53 51 50 49 49 48 48 47 48 48 47 46 46 47 48 47 45 44 45 46 46 45 45 44 43 41 39 37 36 34 32 30 29 30 30 32 35 39 42 43 43 42 40 39 38 38 38 37
20 22 23 25 26 27 29 32 36 40 42 44 46 48 51 56 60 60 59 58 58 58 57 57 57 57 56 55 54 53 52 52 52 52 52 53 54 54 53 53 53 52 51 50 49 49 48 49 48 47 46 47 50 50 48 47 47 47 48 48 48 47 47 45 44 42 39 36 34 33 32 32 32 33 35 37 40 42 42 42 41 40 40 40 40 39
20 21 22 22 24 25 26 27 30 34 38 40 44 48 50 54 58 62 63 63 62 60 60 59 58 58 58 57 56 55 54 54 54 54 54 55 57 57 55 54 55 55 54 53 52 51 50 50 50 49 48 47 49 51 52 51 50 50 51 51 50 49 47 46 46 45 43 39 38 37 36 35 35 34 35 36 38 40 41 41 41 42 42 42 41 40
19 20 21 22 23 24 25 26 27 30 32 34 37 43 48 52 55 59 63 66 66 63 62 61 61 60 59 59 59 58 57 56 56 56 56 57 58 60 60 57 56 57 57 57 55 54 53 52 52 52 51 50 50 52 54 54 55 55 55 52 48 45 44 45 46 47 46 43 42 41 39 38 36 35 34 35 36 38 40 41 42 43 43 43 42 41
20 21 22 23 24 25 26 26 27 28 29 30 33 36 41 48 53 57 61 65 67 67 66 64 63 63 62 61 61 62 61 60 59 59 59 59 60 62 63 62 60 59 59 59 59 57 55 55 54 54 54 53 52 52 54 56 57 58 57 52 46 44 45 46 46 46 47 46 44 42 41 40 38 35 34 33 34 35 38 40 42 43 44 43 42 41
24 26 27 28 28 29 28 28 28 28 28 29 31 33 36 40 46 53 58 62 64 67 70 69 67 66 65 65 64 64 64 64 63 62 62 62 62 62 64 64 63 63 63 62 62 61 59 58 57 56 56 55 55 53 54 55 56 57 58 54 47 44 44 45 46 47 47 47 46 44 42 41 40 37 35 33 33 34 36 39 41 42 43 43 42 42
24 25 26 27 28 28 28 28 28 27 27 29 31 33 35 36 40 46 52 56 60 65 71 73 73 71 69 68 67 67 67 67 66 65 65 65 65 64 65 65 64 65 65 64 63 64 63 61 60 60 58 57 56 55 54 54 54 56 56 53 49 47 46 45 46 48 46 45 45 44 44 43 42 40 37 35 34 35 35 35 38 40 41 42 42 42
23 22 21 21 22 23 24 25 25 24 25 27 29 31 34 37 39 41 44 49 56 61 67 73 76 76 74 72 70 69 70 70 69 68 68 68 68 67 67 67 65 65 66 66 65 65 66 66 64 63 62 60 59 58 57 55 55 54 53 51 50 49 48 46 47 47 45 44 44 43 43 45 45 43 40 39 37 35 34 34 35 36 37 40 40 40
20 20 20 19 19 20 20 21 22 22 22 25 28 30 33 36 38 39 41 45 51 56 61 68 73 77 78 76 74 72 72 72 71 70 70 70 71 70 69 69 69 67 67 68 67 65 66 68 69 67 65 63 62 61 60 59 58 56 52 52 53 52 50 49 48 46 42 43 46 44 42 44 46 44 41 40 38 37 35 35 35 35 35 36 37 38
18 17 18 18 18 18 18 19 20 20 21 23 25 27 30 32 35 38 42 44 46 50 55 61 67 73 78 80 78 76 75 74 74 73 72 72 73 73 72 72 72 70 68 69 71 68 65 67 70 71 70 67 65 64 63 61 60 57 54 53 53 54 53 52 51 49 45 44 46 44 41 41 44 43 41 40 39 39 38 38 37 37 37 36 35 35
16 15 15 15 14 15 16 18 19 19 19 20 21 24 26 28 29 33 37 40 43 46 50 54 60 66 73 79 81 80 79 78 77 75 74 73 74 75 75 74 74 74 72 71 72 73 69 66 68 69 69 70 71 68 65 64 62 58 56 56 55 55 55 54 53 53 51 47 46 45 43 41 41 41 41 42 41 41 41 40 39 38 38 37 36 34
15 14 13 13 13 13 14 15 16 17 17 17 19 21 23 24 25 27 30 33 36 39 42 47 52 59 65 72 79 82 82 82 81 79 77 75 75 76 78 77 76 77 76 74 74 74 73 70 68 63 59 61 69 72 69 66 65 63 60 58 56 56 57 56 54 53 52 49 48 46 44 43 43 42 42 42 42 42 43 44 43 42 40 39 36 33
14 14 13 12 13 13 13 13 13 14 15 16 17 19 21 22 23 24 26 29 32 34 35 38 43 49 56 63 71 78 82 84 84 82 80 78 77 77 79 80 79 79 79 78 77 77 75 73 73 70 61 54 59 70 74 70 66 66 65 60 55 53 55 56 53 52 51 50 49 48 45 45 46 46 45 44 43 43 42 41 41 42 43 40 36 33
12 14 13 12 13 14 14 14 13 12 13 13 13 16 18 21 23 24 26 28 30 33 34 35 37 41 46 53 61 70 76 81 85 86 84 81 79 79 79 81 82 82 81 80 79 80 79 75 75 78 74 62 55 62 71 72 69 68 67 64 57 51 51 54 54 51 50 51 50 48 47 46 47 48 49 48 46 45 43 39 36 36 38 37 35 34
12 13 13 12 13 14 14 14 14 14 13 12 11 12 14 17 20 23 26 28 30 32 34 35 36 38 40 44 51 60 68 75 80 85 88 87 84 81 80 81 83 84 84 83 81 81 82 80 77 78 79 72 61 56 57 61 66 68 66 64 61 54 50 52 53 51 50 50 49 48 47 49 50 50 49 49 49 48 48 46 42 39 37 36 35 36
16 16 15 13 13 15 15 14 14 15 15 13 12 12 14 15 16 18 21 24 28 31 33 35 37 38 39 40 44 50 58 66 74 80 85 88 89 87 84 83 84 85 85 85 84 83 83 84 82 80 78 77 72 64 55 51 55 63 65 63 60 57 53 52 52 51 50 48 47 47 47 49 52 52 50 49 50 49 49 49 47 43 41 39 38 39
22 20 20 17 15 16 17 16 15 15 16 15 13 13 14 15 16 17 19 20 23 25 29 33 36 39 41 42 43 44 49 56 65 73 79 83 88 91 90 87 86 86 86 87 87 86 84 85 86 84 80 77 76 74 68 58 52 56 62 62 59 56 55 54 53 52 49 46 45 45 45 45 48 51 51 50 50 51 51 51 50 47 45 43 42 42
Wind_Direction
214 213 210 207 206 206 205 203 203 208 211 209 206 203 197 194 201 213 215 213 213 213 211 211 211 209 207 206 204 201 199 195 192 192 189 183 177 177 180 182 190 203 211 205 201 203 197 188 184 185 185 188 190 190 192 194 192 185 183 184 182 177 172 166 163 161 160 162 165 165 164 161 156 154 153 152 150 148 146 141 134 129 126 126 126 124
215 211 205 203 204 204 203 201 202 206 208 208 206 205 201 194 197 208 211 209 209 207 207 209 211 210 210 210 210 208 205 201 195 192 190 187 181 179 181 185 194 202 210 209 203 202 193 182 181 184 184 189 190 190 193 197 197 194 189 187 183 179 176 172 168 168 168 168 171 171 169 169 163 158 157 155 151 151 151 148 143 138 135 134 133 129
215 208 203 205 206 204 203 202 202 204 207 207 205 205 203 198 196 204 209 209 206 205 208 212 213 212 213 212 212 210 208 206 202 196 191 188 184 183 184 184 189 194 203 211 203 193 188 179 174 183 189 193 194 194 197 198 198 200 194 190 186 182 180 177 173 173 173 169 169 173 174 174 166 158 160 159 156 158 160 158 153 148 143 141 139 135
212 205 204 207 207 205 204 204 205 206 208 208 207 205 205 203 200 204 210 210 206 206 210 214 215 216 216 215 214 213 212 211 209 202 194 188 186 189 190 186 184 186 193 203 200 188 183 176 171 181 192 192 192 196 200 200 200 201 194 192 190 185 182 181 178 177 172 164 162 168 173 172 165 160 163 166 164 167 169 165 159 155 151 149 146 141
205 204 206 208 207 206 205 205 208 210 210 210 210 206 206 207 205 207 211 211 208 207 211 214 215 218 219 216 216 217 216 214 211 207 198 189 186 188 193 194 189 189 192 200 203 191 179 176 175 182 187 186 188 194 198 199 200 202 196 193 193 188 184 182 181 176 167 159 155 160 168 170 169 170 171 172 172 171 171 166 160 158 154 154 151 146
204 206 208 209 209 208 207 207 209 211 212 212 211 207 207 209 208 209 212 212 209 205 209 213 211 214 219 216 217 220 215 209 209 207 199 187 180 182 191 197 193 193 194 198 206 201 186 181 181 182 183 183 189 196 199 199 198 203 201 195 194 192 187 182 180 174 167 162 159 162 174 178 178 178 176 174 172 170 170 166 160 157 155 155 154 151
208 211 211 210 209 208 208 208 210 211 211 211 208 206 208 209 208 209 211 212 208 204 208 212 207 208 215 215 217 217 208 205 207 208 200 184 173 176 189 195 190 189 193 193 202 210 201 188 183 182 182 184 191 197 202 203 197 200 204 198 195 194 191 184 178 173 169 169 169 171 180 185 182 178 174 172 171 168 168 167 161 157 155 156 157 156
211 214 213 211 209 208 207 208 211 212 211 208 204 205 208 209 209 210 212 212 208 206 209 211 207 207 212 215 218 217 210 209 211 209 200 183 171 172 182 191 189 186 188 188 195 208 209 195 185 184 187 191 193 193 199 204 200 196 200 199 197 196 193 186 179 176 173 176 182 180 182 185 180 176 174 175 174 170 168 167 163 159 159 162 163 161
214 216 214 214 213 210 206 205 209 211 208 203 201 204 206 208 209 211 212 210 208 209 209 210 209 208 211 215 219 221 218 218 218 211 198 185 175 171 178 187 189 185 185 187 192 206 211 200 187 187 193 197 195 189 194 202 201 196 195 197 198 196 194 189 182 180 178 183 190 188 184 180 176 175 176 177 177 174 170 168 166 163 164 170 169 163
215 216 215 215 215 211 206 204 206 206 202 201 202 203 204 206 209 212 213 211 209 209 208 209 210 208 208 212 216 221 221 219 220 210 196 189 183 180 182 186 190 190 189 193 197 206 213 207 194 188 191 194 193 191 195 201 200 196 192 194 197 196 194 191 187 184 184 188 194 195 190 181 176 177 179 179 179 177 174 173 172 170 170 174 173 164
215 214 214 216 214 211 208 207 205 200 198 203 204 203 205 206 209 213 215 214 214 209 205 209 212 208 205 206 211 215 212 207 206 201 193 188 185 185 187 189 193 195 196 201 202 205 213 214 205 193 186 187 189 191 192 197 199 197 193 193 195 195 194 193 192 189 189 192 196 198 194 188 184 183 182 181 181 181 178 177 179 178 176 175 174 169
215 213 214 214 213 211 211 210 206 199 200 205 206 204 206 208 209 213 216 218 219 212 205 210 215 211 205 202 204 204 200 196 193 193 188 179 181 186 188 190 195 198 200 201 200 204 211 216 213 201 189 186 186 184 184 189 195 197 195 193 194 194 193 194 195 193 193 195 198 199 194 192 193 191 188 186 185 185 183 183 185 186 186 183 179 175
213 213 213 213 212 211 212 211 207 203 204 207 207 205 207 209 211 215 218 221 223 216 209 212 218 215 205 200 200 199 198 198 198 200 193 183 185 190 192 194 196 198 198 197 198 203 210 212 212 206 197 191 187 186 191 189 191 195 196 193 191 192 194 196 197 196 197 198 200 199 195 195 199 198 195 191 190 188 186 188 192 195 196 193 187 179
213 213 213 212 211 210 212 211 208 207 207 208 208 208 208 211 214 217 220 224 225 221 214 214 218 217 207 202 203 202 203 202 202 203 197 191 190 191 195 200 200 200 197 194 194 197 202 205 207 207 201 193 190 194 199 194 191 195 195 192 190 191 194 196 199 198 199 201 201 198 196 199 203 202 199 196 194 191 189 191 197 202 205 203 198 190
214 213 213 212 211 209 211 211 209 208 209 209 210 209 210 212 216 220 223 226 228 226 222 219 219 217 210 205 205 205 204 202 199 198 196 194 194 193 196 199 204 209 206 199 193 189 192 200 205 209 205 197 193 196 201 200 195 195 196 194 191 191 193 196 199 200 201 202 201 197 195 202 207 204 201 199 197 195 194 194 196 202 207 207 206 203
216 214 214 214 212 209 210 211 210 209 209 209 211 211 211 212 216 220 224 226 227 228 226 224 223 220 213 206 203 201 200 197 195 198 199 198 198 199 198 197 201 211 216 211 201 193 195 202 209 211 208 203 198 198 201 204 202 198 198 198 195 193 193 195 198 201 203 203 202 197 193 200 208 205 201 201 199 198 198 196 196 200 205 208 210 211
216 216 216 215 214 211 210 210 210 210 210 210 211 212 213 213 215 218 222 225 226 227 227 227 226 224 217 209 205 203 202 198 197 202 206 203 200 200 199 200 201 199 204 210 205 200 200 204 207 209 210 208 203 199 201 205 208 207 202 201 199 196 194 196 198 200 203 204 203 199 195 199 206 205 202 201 201 202 200 196 196 198 200 204 208 211
215 216 216 216 215 213 211 210 210 210 210 210 210 211 213 213 215 217 221 224 226 226 228 228 228 227 222 213 208 207 209 209 207 209 212 207 201 197 195 197 199 195 194 198 201 202 204 204 204 204 207 209 206 202 200 204 212 214 210 205 202 200 197 197 199 201 202 203 202 200 197 199 204 204 203 202 203 205 204 200 199 197 198 203 206 208
214 215 216 217 217 215 213 211 210 210 211 210 209 211 212 212 214 216 219 223 225 225 227 229 229 230 227 218 212 210 212 216 215 212 211 208 203 199 196 194 197 198 195 195 198 203 206 206 204 203 204 206 207 205 203 206 213 217 217 211 206 203 202 201 200 201 202 202 201 200 199 200 204 206 204 203 204 206 209 207 203 201 201 204 206 207
213 214 215 217 217 217 215 212 211 211 211 210 209 210 211 212 213 214 217 220 223 224 227 229 230 232 231 225 218 213 212 216 218 213 208 207 206 205 203 200 202 205 203 199 196 199 203 205 204 204 205 204 203 204 205 207 213 218 222 219 211 208 207 206 203 202 202 202 201 200 199 200 204 207 206 204 204 206 211 213 209 206 206 206 207 208
214 213 214 215 217 218 216 214 213 212 211 211 210 209 210 212 213 214 216 218 220 223 226 228 230 232 233 231 226 219 214 216 218 216 210 207 208 210 211 210 210 210 211 208 199 194 199 202 202 206 209 208 204 202 205 207 210 216 221 224 220 213 211 209 207 205 205 205 203 201 199 199 202 207 208 205 204 206 212 216 216 214 212 209 209 209
215 214 214 215 216 217 218 217 216 214 213 212 211 211 210 211 213 214 216 217 219 222 224 226 230 232 233 233 232 227 222 219 219 219 215 211 211 214 215 217 217 213 210 209 200 192 193 196 198 202 209 212 208 204 206 208 210 213 218 224 225 219 213 211 210 208 207 207 207 205 202 199 200 204 207 205 203 207 212 215 219 220 219 217 215 212
214 215 214 215 216 218 219 220 219 217 216 215 215 214 213 212 212 214 216 217 218 221 223 225 228 231 233 234 233 232 229 225 222 221 220 217 216 216 215 217 220 216 209 206 202 195 193 194 195 198 203 208 209 207 205 206 209 212 216 221 224 221 214 211 211 211 209 208 208 208 206 202 201 203 205 205 203 206 211 214 217 219 220 223 222 218
211 214 214 215 217 219 220 221 221 220 219 218 217 217 216 215 214 214 215 217 217 220 222 224 227 229 231 233 233 233 231 229 226 223 223 222 221 219 216 216 220 219 212 207 204 200 197 196 196 198 200 204 208 208 205 204 207 210 215 218 220 220 216 211 210 211 210 209 209 210 209 206 204 203 204 204 203 205 209 213 215 216 217 221 225 224
209 210 212 213 216 219 220 222 223 222 221 219 219 218 218 218 217 217 217 217 218 219 221 224 226 228 229 232 233 233 232 231 229 226 224 223 224 223 220 218 220 220 215 210 207 205 203 201 199 199 201 203 207 208 206 203 204 206 211 214 215 217 217 212 210 210 210 210 210 211 211 210 208 206 205 205 205 205 208 211 213 213 214 217 221 224
213 212 211 213 215 218 220 221 222 223 222 221 220 220 219 219 220 220 220 220 220 220 221 223 227 228 229 231 234 234 233 231 231 228 225 224 225 225 224 222 220 220 218 213 210 208 207 207 204 201 202 204 206 208 207 205 204 203 205 207 210 213 215 213 211 210 210 211 211 212 212 213 212 210 209 208 207 208 209 210 211 212 212 213 216 220
219 217 215 215 216 219 221 221 222 222 223 222 222 221 221 221 221 222 222 222 222 222 221 223 226 229 229 230 233 236 234 232 231 229 226 224 224 224 224 221 219 220 220 217 213 210 210 211 209 206 205 208 208 208 208 208 207 206 205 205 207 210 212 213 213 211 210 211 211 211 212 214 215 214 213 212 211 211 211 211 212 213 214 214 214 217
225 224 222 220 220 221 222 223 223 223 223 223 223 223 222 222 222 223 223 223 224 224 224 224 225 228 229 229 231 235 236 234 231 228 224 223 223 222 220 217 217 221 222 220 218 216 214 214 213 210 209 211 212 211 209 208 209 209 207 206 207 209 211 213 214 213 213 212 212 212 212 213 214 216 216 215 214 214 214 214 214 215 217 217 217 218
230 229 228 227 225 225 226 226 226 226 225 224 224 224 224 223 223 223 224 225 225 226 226 227 226 227 229 229 230 233 235 235 232 227 221 219 219 218 217 213 216 223 225 222 221 220 219 218 216 214 212 213 215 215 213 212 212 212 210 208 208 208 210 212 213 214 214 213 213 212 212 212 213 215 217 217 217 216 216 216 216 217 218 219 219 220
237 235 234 232 230 229 229 230 230 230 229 227 226 226 226 226 225 224 225 226 226 227 228 228 228 227 228 228 229 231 233 234 232 225 218 215 214 215 215 213 215 222 226 223 222 222 223 222 219 217 216 216 218 218 216 215 216 216 215 212 211 209 209 211 212 213 215 214 213 213 213 213 212 213 215 217 217 218 217 216 217 218 218 219 219 220
245 244 242 240 237 233 231 232 232 233 233 231 229 229 229 229 229 227 226 227 227 227 228 229 229 227 227 228 227 228 231 232 231 224 217 213 212 213 215 214 216 221 224 223 222 222 223 224 222 219 217 218 219 219 218 217 217 218 218 218 217 214 213 212 211 213 214 214 214 215 215 215 214 214 215 216 217 218 218 217 217 217 218 219 220 221
252 251 249 247 245 241 236 234 234 234 234 234 232 231 230 230 231 230 228 227 226 227 227 229 229 228 227 227 227 227 229 231 229 224 217 213 212 213 214 214 215 219 222 222 222 222 223 224 222 219 217 217 218 217 217 217 216 217 218 221 222 221 219 217 215 215 216 216 217 217 216 216 216 215 215 216 217 218 219 219 218 217 218 219 221 223
255 255 254 253 251 249 244 240 237 235 235 235 234 233 232 231 231 232 231 229 227 226 227 228 229 229 227 226 226 225 226 229 229 225 218 213 212 213 213 213 215 217 220 221 221 222 223 224 223 220 217 217 217 216 216 216 216 216 218 221 223 225 225 223 220 220 220 222 224 224 223 223 222 221 219 218 218 219 219 219 219 218 218 219 221 223
258 257 257 256 255 253 250 246 242 239 237 236 234 234 233 232 232 231 232 231 230 228 228 227 228 228 228 227 226 225 225 226 227 225 220 215 213 213 214 214 214 215 218 220 221 222 223 225 224 221 217 217 218 216 215 215 216 217 219 221 224 226 227 226 224 222 223 225 228 229 230 231 232 232 230 226 223 222 221 221 220 220 220 220 221 222
259 259 259 259 257 256 254 251 247 243 240 238 236 234 233 232 232 231 231 232 232 231 230 229 228 228 228 228 227 225 225 225 226 225 222 218 215 215 216 216 214 213 216 219 221 222 223 224 225 223 220 218 218 217 215 215 215 217 219 222 224 226 227 227 224 222 222 224 226 226 225 227 229 233 236 236 233 229 226 224 223 222 222 221 222 223
261 261 260 260 260 259 257 254 251 247 244 242 238 235 233 231 231 231 231 232 232 232 232 231 230 229 229 228 227 226 225 225 225 224 223 220 217 215 215 214 213 213 215 218 220 221 223 224 225 225 223 221 220 219 216 215 215 217 219 221 222 224 225 225 224 221 219 220 221 221 222 223 224 228 233 237 238 236 232 229 226 225 224 224 223 224
262 262 261 261 260 259 258 257 255 251 248 246 242 239 236 232 230 230 230 231 232 233 234 234 232 231 230 229 228 227 225 224 225 224 223 222 219 216 214 213 214 215 216 217 219 221 224 225 226 226 225 223 222 221 220 218 217 218 220 222 223 223 224 226 226 223 219 216 216 218 220 221 223 227 230 233 235 237 236 233 230 228 227 226 225 225
260 262 264 264 263 262 260 259 258 255 252 250 247 243 240 236 233 230 229 230 231 233 234 234 234 232 231 230 229 228 226 224 223 224 224 223 221 219 216 214 214 216 217 218 219 221 224 226 227 227 227 226 224 224 223 222 221 221 223 225 226 227 227 228 229 227 222 217 216 217 217 218 221 225 229 231 233 234 234 234 232 231 230 229 228 227
264 265 266 266 266 266 264 262 260 257 255 255 253 250 246 241 237 233 230 229 230 231 233 234 234 233 232 231 229 229 228 225 223 223 224 224 223 222 220 218 217 217 219 220 220 220 223 226 228 229 229 229 228 226 225 225 226 226 228 230 230 230 228 227 229 230 227 223 220 218 217 217 219 222 225 229 231 232 232 232 232 232 232 231 230 229
272 273 273 271 269 266 264 261 260 259 258 258 257 255 253 249 244 238 232 229 229 230 231 233 233 233 232 231 230 230 229 227 224 222 223 225 224 223 223 222 220 218 220 221 221 220 222 225 228 230 231 230 230 228 227 227 228 230 231 231 230 231 231 230 228 229 229 226 223 220 217 216 218 220 222 225 228 230 230 230 231 231 232 231 231 230
280 280 279 275 271 267 263 259 258 258 258 259 259 257 256 254 251 245 237 232 230 229 229 230 231 232 232 231 231 230 229 228 225 222 222 224 225 225 224 223 220 218 219 221 222 221 221 224 227 230 230 230 230 229 227 227 228 231 233 232 230 230 231 231 229 230 231 229 225 222 219 217 216 217 218 221 226 229 230 230 230 230 231 231 232 232
294 295 290 280 271 267 264 261 259 258 257 258 258 259 259 257 256 252 244 237 233 230 228 228 229 230 231 231 231 231 230 228 227 224 222 223 225 226 225 223 220 218 218 220 222 222 222 223 227 229 230 230 229 228 228 228 230 232 234 233 231 230 230 230 230 230 234 234 231 228 225 220 216 215 215 217 222 228 232 234 234 232 232 233 233 234
299 302 302 294 281 272 268 266 263 258 255 255 258 259 260 258 256 253 249 243 238 234 231 229 228 229 230 231 231 231 231 230 228 226 224 223 224 226 226 224 221 219 218 219 221 223 223 224 226 229 230 230 230 229 229 230 230 231 232 233 232 230 229 231 229 227 231 233 231 231 231 225 218 216 215 216 219 224 229 233 236 235 234 234 234 235
296 301 304 302 293 283 275 269 263 256 252 254 258 260 260 259 256 251 249 247 244 240 235 232 230 229 229 229 230 230 231 231 230 228 226 224 224 225 227 226 224 221 220 219 221 223 224 224 226 229 230 231 230 231 231 231 230 231 232 233 232 229 228 230 230 229 233 235 231 231 234 229 221 218 217 217 219 223 226 230 233 234 235 234 234 235
293 297 302 305 302 296 286 274 266 261 256 254 257 259 260 260 257 252 249 247 247 245 241 237 234 232 230 229 229 230 230 231 231 230 228 227 226 226 226 227 226 224 222 221 222 224 224 224 225 228 231 232 231 231 232 232 231 231 232 233 232 229 228 230 231 232 236 238 234 233 236 234 227 222 221 221 222 225 228 230 231 232 234 235 235 236
293 295 299 303 304 303 297 289 281 275 267 257 254 255 257 257 255 252 248 245 244 244 244 242 239 237 234 231 230 229 230 231 231 231 230 228 227 227 227 227 227 227 225 222 223 225 225 225 224 224 227 232 232 231 231 231 231 231 232 232 231 228 227 228 231 233 235 236 235 236 237 236 232 229 226 226 227 229 231 232 231 231 232 233 235 236
293 296 299 301 302 301 301 302 300 292 282 270 260 256 256 256 255 252 248 246 244 244 245 244 243 241 239 236 233 231 230 230 230 231 231 230 229 228 228 227 227 228 227 225 223 225 226 227 226 224 224 228 231 231 230 230 230 231 232 233 232 228 225 226 229 231 232 232 233 235 235 234 232 231 229 228 229 231 233 234 233 231 229 230 233 236
287 294 298 301 303 302 302 303 305 302 297 289 277 266 260 257 256 253 250 249 248 248 248 249 247 245 243 241 238 235 232 231 230 230 231 231 230 229 229 229 228 228 228 227 225 225 226 227 228 228 228 227 226 228 230 231 231 231 231 232 232 230 225 224 226 229 230 232 234 235 235 234 234 234 233 233 233 233 235 237 238 235 230 230 235 238
276 285 292 298 302 302 303 305 305 303 301 300 296 285 272 263 259 256 254 253 252 252 252 253 253 251 248 245 243 239 236 234 233 231 231 231 231 231 230 230 230 229 229 228 227 226 227 227 228 230 232 231 226 222 225 230 232 231 230 230 232 233 227 223 225 229 231 233 235 236 236 237 237 237 237 237 237 237 238 242 244 242 239 238 240 241
271 277 281 286 294 297 299 304 307 304 302 304 304 298 289 281 274 268 263 260 258 256 255 255 254 254 252 249 246 243 240 238 236 235 233 231 231 231 230 230 230 230 230 230 228 227 227 228 228 230 233 234 232 226 222 224 229 231 230 228 230 232 228 223 225 227 229 231 233 234 237 239 237 237 238 239 238 237 239 241 242 241 241 241 241 240
265 269 273 275 280 286 290 294 299 300 301 304 307 302 296 292 288 283 278 274 270 266 263 260 257 255 254 252 250 247 244 241 239 238 236 234 232 232 231 230 229 230 231 232 230 228 228 228 229 230 232 234 235 233 229 226 225 228 230 229 228 228 227 225 224 224 226 229 231 234 238 239 235 234 236 238 238 236 236 238 237 236 238 240 240 238
Height
5835 5838 5842 5846 5848 5849 5851 5853 5854 5856 5858 5860 5863 5865 5867 5870 5873 5874 5876 5878 5879 5881 5882 5882 5883 5885 5887 5888 5889 5890 5892 5893 5895 5896 5898 5899 5901 5902 5904 5904 5905 5905 5906 5909 5911 5912 5912 5913 5913 5914 5914 5914 5915 5916 5918 5918 5919 5919 5920 5922 5924 5926 5927 5929 5930 5932 5933 5935 5936 5938 5939 5940 5940 5941 5942 5943 5944 5945 5945 5945 5946 5947 5947 5948 5948 5948
5832 5836 5841 5843 5843 5845 5847 5849 5851 5852 5855 5857 5860 5862 5865 5868 5871 5872 5874 5875 5877 5878 5879 5879 5880 5882 5884 5886 5888 5889 5890 5890 5891 5893 5895 5897 5899 5901 5902 5904 5904 5905 5907 5908 5910 5911 5912 5913 5913 5914 5914 5915 5915 5916 5917 5918 5919 5920 5920 5922 5924 5926 5927 5928 5929 5931 5933 5934 5936 5938 5939 5940 5941 5941 5943 5944 5944 5945 5946 5946 5947 5947 5948 5949 5949 5949
5831 5835 5837 5838 5839 5841 5844 5846 5848 5849 5852 5854 5857 5860 5863 5866 5868 5870 5871 5873 5875 5876 5876 5877 5878 5880 5882 5885 5886 5887 5888 5889 5889 5891 5893 5895 5897 5899 5901 5903 5904 5906 5907 5907 5909 5910 5911 5912 5913 5913 5914 5914 5915 5916 5917 5918 5919 5920 5921 5922 5924 5925 5927 5928 5929 5931 5932 5934 5936 5938 5939 5941 5942 5942 5943 5944 5945 5945 5946 5947 5947 5948 5949 5950 5950 5950
5830 5832 5833 5833 5836 5839 5841 5844 5845 5847 5850 5853 5856 5859 5861 5864 5866 5867 5868 5871 5873 5874 5874 5876 5877 5879 5882 5883 5885 5886 5887 5889 5890 5891 5892 5894 5896 5899 5900 5902 5904 5905 5906 5906 5907 5909 5910 5911 5912 5913 5913 5914 5915 5916 5917 5918 5919 5919 5920 5922 5923 5925 5926 5928 5929 5931 5932 5934 5936 5938 5940 5941 5942 5943 5943 5944 5945 5946 5947 5947 5948 5949 5949 5950 5950 5951
5827 5828 5828 5830 5833 5836 5839 5841 5843 5845 5848 5851 5854 5858 5860 5861 5863 5865 5866 5869 5871 5872 5873 5874 5876 5879 5881 5883 5884 5885 5887 5889 5890 5891 5892 5894 5896 5898 5901 5903 5904 5905 5905 5905 5906 5907 5908 5909 5910 5911 5912 5913 5914 5915 5916 5917 5918 5919 5920 5921 5923 5925 5926 5928 5929 5931 5933 5934 5936 5938 5940 5941 5942 5942 5943 5944 5945 5946 5947 5948 5948 5949 5950 5950 5951 5951
5823 5823 5825 5828 5831 5834 5836 5839 5841 5844 5847 5850 5853 5856 5857 5859 5861 5863 5864 5866 5869 5871 5871 5872 5875 5878 5880 5882 5883 5884 5886 5888 5890 5891 5892 5893 5895 5897 5899 5901 5903 5904 5905 5905 5905 5906 5907 5908 5909 5910 5911 5912 5913 5914 5915 5916 5917 5919 5919 5921 5923 5925 5926 5928 5929 5932 5933 5935 5936 5937 5939 5940 5940 5941 5943 5944 5945 5946 5947 5948 5949 5949 5950 5951 5952 5952
5820 5820 5823 5826 5829 5831 5834 5837 5839 5842 5845 5848 5851 5854 5855 5856 5859 5860 5861 5863 5867 5869 5869 5871 5874 5877 5878 5880 5882 5883 5885 5887 5888 5890 5891 5893 5894 5896 5898 5900 5901 5903 5904 5904 5904 5905 5906 5908 5909 5909 5910 5911 5912 5913 5914 5915 5917 5918 5920 5921 5922 5924 5926 5928 5930 5932 5933 5935 5936 5937 5938 5939 5940 5942 5943 5944 5945 5946 5947 5948 5949 5950 5950 5951 5952 5953
5816 5818 5821 5824 5826 5829 5832 5835 5838 5840 5844 5847 5850 5851 5852 5854 5856 5857 5858 5861 5865 5866 5867 5870 5873 5875 5877 5879 5881 5883 5885 5887 5888 5890 5891 5892 5892 5894 5896 5898 5900 5901 5903 5904 5904 5904 5905 5907 5908 5908 5909 5910 5910 5912 5913 5914 5916 5918 5919 5920 5922 5924 5926 5928 5930 5931 5933 5934 5935 5936 5938 5939 5941 5942 5943 5945 5945 5946 5947 5948 5949 5950 5951 5952 5953 5953
5812 5815 5819 5821 5824 5827 5830 5833 5835 5838 5842 5845 5846 5846 5848 5850 5851 5853 5855 5859 5862 5863 5866 5869 5871 5874 5877 5879 5881 5883 5885 5888 5890 5891 5891 5891 5891 5893 5894 5896 5898 5900 5901 5903 5903 5904 5904 5905 5906 5907 5908 5909 5910 5911 5912 5913 5915 5917 5918 5920 5921 5924 5926 5928 5930 5931 5932 5934 5935 5936 5938 5939 5940 5942 5943 5945 5946 5947 5947 5948 5949 5950 5951 5952 5953 5953
5808 5812 5816 5819 5822 5825 5828 5830 5832 5836 5840 5841 5841 5842 5844 5846 5847 5849 5851 5855 5858 5860 5864 5867 5869 5873 5876 5878 5880 5883 5886 5889 5890 5890 5890 5890 5890 5891 5893 5894 5897 5899 5900 5902 5902 5903 5903 5904 5905 5906 5907 5908 5910 5911 5912 5913 5914 5916 5918 5920 5921 5924 5926 5928 5930 5931 5932 5933 5935 5936 5938 5939 5940 5941 5943 5944 5945 5947 5948 5948 5949 5950 5951 5952 5953 5953
5805 5809 5813 5815 5819 5822 5824 5827 5830 5834 5835 5835 5837 5840 5841 5843 5845 5846 5849 5852 5854 5858 5863 5865 5867 5871 5874 5877 5880 5883 5887 5888 5888 5888 5888 5889 5890 5891 5892 5893 5895 5897 5899 5900 5901 5902 5902 5903 5905 5906 5907 5908 5910 5911 5912 5913 5914 5916 5918 5919 5921 5923 5926 5928 5930 5931 5932 5933 5935 5937 5938 5939 5940 5941 5942 5944 5945 5946 5947 5948 5949 5950 5951 5952 5953 5953
5802 5805 5808 5812 5815 5818 5821 5825 5828 5830 5831 5832 5835 5838 5839 5841 5843 5844 5846 5848 5850 5856 5861 5863 5865 5868 5872 5876 5879 5881 5882 5883 5884 5884 5885 5886 5887 5889 5890 5891 5893 5895 5897 5898 5900 5901 5902 5903 5905 5907 5907 5908 5909 5911 5912 5913 5914 5916 5917 5919 5920 5923 5925 5927 5929 5931 5932 5933 5935 5937 5938 5939 5940 5941 5942 5943 5944 5946 5947 5949 5950 5951 5951 5952 5952 5953
5798 5801 5805 5808 5812 5815 5818 5822 5825 5827 5828 5830 5833 5836 5837 5839 5840 5841 5843 5844 5847 5854 5860 5861 5863 5866 5870 5874 5875 5876 5878 5879 5879 5880 5880 5881 5883 5885 5887 5889 5890 5892 5895 5897 5898 5900 5901 5903 5905 5906 5907 5908 5909 5910 5911 5912 5914 5915 5916 5918 5920 5922 5924 5926 5928 5930 5932 5933 5935 5936 5938 5940 5940 5941 5942 5943 5944 5946 5947 5949 5950 5951 5951 5952 5952 5953
5795 5798 5802 5805 5808 5812 5815 5818 5822 5824 5826 5828 5830 5833 5835 5836 5838 5839 5841 5843 5846 5852 5857 5859 5860 5863 5868 5871 5872 5874 5875 5876 5877 5877 5878 5878 5879 5882 5884 5886 5888 5890 5893 5895 5897 5899 5900 5902 5903 5905 5906 5907 5909 5909 5910 5912 5913 5914 5915 5917 5919 5921 5923 5925 5927 5929 5931 5933 5934 5936 5938 5939 5940 5941 5942 5943 5944 5946 5947 5948 5950 5951 5952 5952 5953 5953
5793 5796 5798 5801 5805 5809 5812 5814 5818 5820 5823 5825 5827 5830 5833 5835 5837 5838 5840 5842 5845 5850 5853 5856 5858 5861 5865 5869 5871 5872 5873 5874 5876 5877 5878 5879 5879 5880 5881 5884 5887 5889 5892 5893 5895 5897 5899 5901 5902 5904 5905 5906 5908 5908 5909 5911 5912 5913 5914 5916 5917 5919 5921 5924 5926 5928 5930 5932 5933 5935 5937 5939 5940 5941 5942 5943 5944 5946 5947 5948 5949 5950 5951 5952 5953 5953
5790 5792 5795 5798 5802 5805 5808 5811 5814 5817 5820 5822 5825 5827 5830 5833 5836 5838 5839 5841 5844 5847 5850 5852 5855 5858 5863 5866 5868 5870 5871 5872 5875 5876 5877 5879 5880 5881 5882 5884 5886 5888 5891 5893 5895 5896 5897 5899 5901 5903 5904 5905 5907 5908 5909 5910 5911 5913 5913 5914 5916 5918 5920 5922 5924 5926 5928 5930 5932 5934 5936 5938 5939 5940 5942 5943 5944 5945 5946 5947 5949 5950 5951 5952 5953 5953
5787 5789 5792 5795 5799 5802 5804 5807 5810 5813 5816 5819 5822 5824 5827 5831 5834 5836 5838 5840 5842 5844 5846 5848 5851 5855 5860 5863 5865 5867 5869 5870 5873 5875 5876 5877 5878 5881 5883 5885 5886 5887 5889 5891 5893 5895 5896 5897 5899 5901 5903 5904 5906 5907 5908 5909 5910 5911 5912 5913 5915 5917 5918 5920 5922 5924 5926 5928 5930 5933 5934 5936 5938 5940 5941 5942 5943 5944 5945 5946 5947 5949 5950 5951 5952 5953
5785 5787 5789 5792 5795 5798 5801 5804 5807 5810 5812 5815 5818 5821 5825 5829 5831 5833 5835 5837 5839 5841 5842 5844 5848 5851 5855 5859 5862 5864 5866 5867 5870 5872 5874 5875 5876 5879 5882 5884 5886 5887 5887 5888 5890 5892 5894 5896 5898 5900 5902 5903 5905 5906 5907 5908 5909 5910 5911 5913 5914 5915 5917 5919 5920 5922 5924 5926 5929 5931 5933 5935 5936 5938 5939 5940 5941 5943 5944 5945 5946 5948 5949 5950 5951 5952
5782 5784 5786 5789 5792 5795 5798 5801 5804 5806 5808 5812 5815 5818 5822 5825 5827 5830 5832 5834 5836 5838 5838 5841 5844 5846 5850 5855 5858 5860 5862 5864 5866 5869 5871 5873 5874 5877 5880 5882 5884 5885 5886 5887 5889 5891 5893 5895 5897 5898 5900 5901 5903 5904 5905 5906 5908 5909 5911 5912 5913 5914 5915 5916 5918 5920 5922 5925 5927 5929 5931 5933 5934 5936 5938 5939 5941 5942 5943 5944 5945 5947 5948 5949 5950 5951
5779 5781 5783 5786 5788 5791 5795 5798 5800 5802 5805 5808 5811 5815 5818 5820 5823 5826 5829 5830 5833 5835 5835 5838 5840 5842 5846 5851 5854 5856 5858 5860 5863 5866 5868 5870 5872 5875 5877 5880 5882 5884 5886 5887 5889 5890 5892 5894 5896 5897 5897 5898 5900 5901 5903 5905 5906 5908 5910 5911 5912 5913 5914 5915 5917 5919 5921 5923 5925 5927 5929 5931 5933 5935 5936 5938 5940 5941 5942 5943 5944 5945 5947 5948 5949 5950
5777 5779 5781 5783 5785 5788 5791 5794 5796 5799 5801 5805 5808 5811 5813 5816 5820 5823 5825 5827 5830 5831 5833 5835 5836 5838 5841 5845 5849 5852 5854 5856 5860 5862 5865 5868 5870 5872 5875 5877 5880 5882 5885 5886 5888 5889 5889 5891 5893 5895 5895 5895 5897 5898 5900 5903 5905 5906 5908 5910 5911 5912 5913 5915 5916 5918 5920 5921 5923 5925 5927 5929 5931 5933 5935 5936 5938 5940 5941 5942 5944 5944 5945 5947 5948 5949
5775 5777 5779 5781 5783 5785 5787 5790 5793 5796 5798 5801 5804 5807 5809 5813 5816 5819 5822 5824 5827 5829 5830 5832 5832 5834 5837 5840 5844 5848 5850 5853 5856 5859 5862 5865 5867 5870 5872 5875 5877 5879 5882 5883 5885 5885 5886 5887 5889 5891 5892 5893 5895 5897 5899 5901 5903 5905 5907 5908 5909 5910 5912 5913 5914 5916 5918 5920 5922 5923 5925 5927 5929 5931 5933 5935 5937 5938 5940 5941 5942 5943 5945 5946 5946 5947
5773 5775 5777 5779 5780 5782 5785 5787 5790 5793 5796 5798 5801 5803 5806 5809 5812 5815 5818 5821 5824 5826 5827 5829 5830 5831 5834 5836 5839 5843 5846 5849 5852 5856 5859 5862 5864 5867 5869 5872 5874 5876 5878 5879 5881 5882 5882 5882 5883 5885 5887 5890 5892 5893 5895 5898 5901 5903 5905 5906 5907 5909 5910 5911 5912 5914 5915 5917 5920 5922 5923 5925 5927 5929 5931 5933 5935 5936 5938 5939 5940 5942 5943 5944 5945 5946
5771 5773 5774 5776 5778 5780 5782 5784 5787 5790 5793 5795 5797 5800 5803 5805 5808 5811 5814 5817 5820 5822 5824 5826 5827 5828 5830 5832 5834 5838 5842 5846 5849 5853 5856 5858 5861 5863 5866 5869 5871 5873 5874 5876 5878 5879 5880 5880 5880 5882 5884 5886 5888 5890 5892 5895 5897 5900 5902 5904 5905 5907 5907 5908 5909 5911 5913 5915 5917 5919 5921 5923 5924 5926 5928 5931 5932 5934 5935 5936 5938 5940 5941 5942 5943 5945
5768 5769 5771 5773 5775 5777 5779 5781 5783 5786 5789 5792 5794 5796 5799 5801 5804 5807 5810 5813 5815 5818 5821 5823 5824 5825 5828 5830 5831 5834 5838 5842 5846 5849 5852 5855 5857 5859 5862 5865 5867 5869 5871 5873 5875 5877 5878 5879 5879 5880 5881 5883 5884 5886 5888 5890 5892 5895 5898 5900 5902 5903 5904 5905 5906 5908 5910 5912 5914 5916 5918 5920 5922 5924 5926 5928 5929 5931 5932 5933 5935 5937 5938 5940 5941 5942
5764 5766 5768 5770 5771 5773 5775 5777 5779 5782 5785 5787 5790 5792 5795 5797 5800 5803 5805 5808 5811 5814 5817 5819 5820 5822 5825 5827 5828 5831 5835 5838 5842 5845 5849 5852 5854 5856 5859 5861 5863 5866 5868 5870 5872 5874 5876 5878 5878 5879 5880 5881 5882 5883 5885 5886 5888 5890 5892 5895 5897 5899 5900 5902 5903 5905 5907 5909 5911 5913 5916 5917 5919 5922 5923 5925 5926 5927 5928 5930 5932 5934 5935 5937 5938 5940
5762 5764 5766 5767 5768 5770 5771 5773 5775 5778 5780 5783 5785 5788 5790 5793 5796 5799 5801 5804 5806 5810 5813 5815 5816 5818 5822 5824 5825 5827 5831 5835 5838 5842 5845 5848 5850 5852 5855 5857 5859 5862 5864 5866 5869 5871 5873 5875 5877 5878 5879 5880 5880 5881 5883 5885 5886 5887 5889 5891 5893 5895 5897 5898 5900 5902 5904 5905 5908 5910 5913 5915 5917 5919 5920 5922 5923 5924 5926 5928 5930 5931 5933 5934 5936 5937
5760 5761 5763 5764 5766 5767 5768 5770 5772 5774 5776 5778 5781 5783 5785 5788 5791 5794 5797 5800 5803 5806 5808 5811 5813 5815 5817 5821 5823 5824 5827 5831 5835 5838 5841 5844 5846 5848 5851 5853 5856 5858 5860 5863 5865 5867 5869 5871 5874 5876 5877 5878 5879 5879 5881 5882 5883 5885 5887 5889 5890 5892 5894 5896 5897 5899 5900 5902 5904 5907 5909 5911 5913 5915 5917 5918 5920 5922 5924 5926 5928 5929 5931 5933 5934 5936
5757 5759 5760 5762 5763 5765 5766 5767 5769 5771 5773 5775 5777 5779 5781 5783 5787 5790 5792 5796 5799 5801 5803 5806 5808 5810 5813 5817 5819 5821 5823 5827 5831 5834 5837 5840 5842 5845 5847 5849 5853 5855 5857 5859 5861 5864 5866 5868 5870 5872 5874 5875 5876 5878 5879 5880 5880 5882 5884 5885 5887 5889 5891 5893 5894 5896 5897 5899 5901 5903 5905 5907 5909 5911 5913 5915 5917 5919 5921 5923 5925 5927 5929 5931 5933 5934
5754 5756 5757 5758 5760 5762 5763 5764 5766 5768 5770 5772 5774 5775 5777 5779 5782 5785 5788 5791 5794 5797 5798 5800 5803 5806 5809 5813 5816 5818 5819 5822 5827 5831 5833 5836 5838 5841 5843 5846 5849 5851 5853 5856 5858 5860 5862 5864 5867 5869 5871 5872 5874 5875 5877 5878 5879 5881 5882 5883 5884 5886 5888 5890 5892 5893 5895 5897 5898 5899 5901 5902 5904 5906 5908 5911 5913 5916 5918 5920 5921 5923 5926 5928 5930 5931
5750 5752 5753 5754 5756 5758 5760 5761 5763 5764 5766 5768 5770 5772 5774 5775 5778 5781 5784 5787 5790 5792 5793 5795 5798 5801 5805 5808 5811 5814 5816 5818 5822 5827 5829 5832 5835 5837 5840 5843 5846 5848 5850 5852 5854 5856 5858 5860 5863 5865 5867 5869 5871 5872 5874 5875 5877 5879 5881 5882 5882 5884 5885 5886 5888 5890 5892 5894 5895 5896 5897 5898 5900 5902 5904 5906 5909 5911 5913 5915 5917 5920 5922 5925 5927 5928
5745 5747 5748 5749 5751 5754 5756 5758 5759 5760 5762 5764 5766 5768 5770 5772 5774 5777 5780 5782 5784 5787 5788 5790 5793 5797 5801 5804 5807 5810 5812 5814 5818 5822 5825 5828 5830 5833 5836 5839 5842 5844 5846 5848 5850 5852 5854 5856 5859 5861 5863 5865 5867 5869 5871 5872 5874 5876 5878 5879 5881 5882 5883 5884 5886 5888 5889 5891 5891 5892 5893 5895 5896 5898 5900 5902 5905 5907 5909 5911 5913 5916 5919 5921 5923 5925
5740 5741 5742 5744 5746 5748 5751 5754 5755 5757 5759 5759 5760 5762 5765 5767 5770 5772 5774 5777 5779 5781 5783 5785 5789 5792 5796 5799 5802 5805 5808 5810 5813 5817 5821 5824 5826 5829 5832 5835 5838 5840 5842 5844 5846 5848 5850 5852 5854 5856 5859 5861 5863 5865 5867 5869 5871 5872 5874 5875 5877 5879 5881 5883 5885 5887 5888 5890 5891 5892 5894 5896 5897 5898 5899 5900 5902 5903 5905 5908 5910 5913 5915 5918 5920 5921
5736 5736 5737 5739 5741 5742 5745 5748 5750 5753 5754 5754 5755 5757 5759 5762 5764 5766 5768 5771 5774 5776 5777 5780 5784 5787 5790 5793 5797 5800 5803 5805 5808 5812 5816 5819 5822 5824 5827 5830 5833 5836 5838 5840 5842 5844 5846 5848 5849 5852 5854 5856 5859 5861 5863 5865 5867 5869 5870 5872 5873 5875 5877 5880 5883 5885 5887 5888 5890 5893 5895 5898 5900 5901 5902 5901 5901 5901 5903 5905 5907 5910 5911 5913 5915 5917
5732 5733 5733 5734 5735 5737 5739 5741 5743 5746 5747 5747 5749 5752 5753 5755 5758 5760 5763 5765 5768 5770 5772 5775 5778 5781 5784 5787 5791 5795 5798 5800 5802 5806 5811 5814 5817 5819 5822 5825 5828 5831 5833 5836 5838 5840 5842 5843 5845 5847 5850 5852 5854 5857 5859 5861 5863 5864 5866 5867 5869 5870 5873 5875 5878 5880 5882 5884 5887 5889 5891 5893 5896 5899 5901 5902 5902 5902 5902 5903 5905 5907 5908 5910 5911 5913
5729 5729 5730 5730 5731 5732 5733 5734 5736 5739 5740 5741 5743 5744 5746 5748 5750 5753 5757 5759 5761 5764 5767 5769 5772 5775 5778 5782 5785 5789 5792 5794 5797 5800 5804 5808 5812 5814 5817 5819 5822 5825 5828 5831 5833 5835 5837 5838 5840 5842 5845 5848 5850 5852 5855 5857 5859 5860 5861 5861 5862 5864 5866 5869 5871 5874 5876 5879 5882 5885 5886 5887 5889 5892 5895 5897 5900 5901 5902 5902 5903 5904 5905 5906 5907 5909
5726 5726 5727 5727 5728 5728 5729 5729 5730 5732 5733 5734 5735 5736 5738 5740 5743 5746 5749 5751 5754 5758 5761 5763 5766 5770 5773 5776 5779 5783 5786 5789 5791 5794 5798 5801 5805 5808 5811 5813 5817 5820 5822 5825 5828 5830 5832 5833 5835 5838 5840 5843 5845 5848 5851 5853 5855 5855 5855 5854 5856 5859 5863 5866 5868 5869 5870 5872 5875 5878 5882 5884 5886 5888 5889 5892 5895 5898 5900 5901 5901 5901 5902 5903 5904 5906
5723 5723 5723 5724 5724 5724 5725 5725 5725 5726 5727 5727 5727 5728 5730 5732 5735 5739 5741 5744 5748 5752 5754 5757 5760 5763 5767 5771 5773 5776 5780 5783 5785 5788 5791 5794 5797 5801 5804 5807 5811 5814 5817 5820 5822 5825 5827 5829 5830 5833 5835 5838 5841 5843 5846 5848 5849 5849 5849 5850 5855 5860 5863 5865 5867 5868 5869 5868 5868 5870 5875 5879 5882 5885 5886 5888 5890 5893 5895 5896 5898 5898 5898 5900 5901 5903
5721 5721 5720 5720 5720 5720 5720 5721 5721 5722 5722 5722 5722 5722 5724 5725 5727 5730 5733 5736 5741 5745 5748 5750 5753 5756 5760 5763 5766 5769 5773 5776 5779 5782 5784 5786 5790 5793 5797 5800 5804 5807 5811 5814 5817 5820 5822 5823 5825 5828 5830 5833 5836 5838 5840 5842 5844 5844 5846 5850 5855 5858 5859 5860 5863 5866 5868 5868 5866 5865 5868 5873 5878 5881 5883 5885 5887 5888 5890 5891 5893 5894 5895 5896 5898 5899
5718 5717 5716 5716 5715 5715 5715 5716 5716 5717 5717 5717 5716 5716 5717 5719 5719 5721 5725 5731 5736 5739 5741 5743 5745 5748 5751 5755 5758 5761 5765 5769 5772 5775 5778 5780 5783 5786 5789 5793 5797 5801 5804 5807 5810 5814 5816 5818 5820 5822 5825 5828 5830 5832 5834 5836 5838 5840 5843 5847 5852 5854 5855 5856 5859 5861 5864 5865 5864 5863 5864 5868 5872 5876 5878 5881 5883 5884 5884 5886 5888 5889 5891 5892 5894 5895
5714 5713 5712 5711 5710 5710 5710 5710 5711 5712 5713 5712 5711 5711 5712 5712 5712 5715 5721 5726 5729 5729 5731 5733 5736 5739 5742 5746 5749 5752 5756 5760 5764 5768 5771 5774 5776 5779 5783 5787 5791 5794 5797 5801 5804 5807 5810 5812 5814 5816 5819 5822 5824 5826 5829 5831 5832 5835 5837 5842 5847 5850 5851 5853 5855 5857 5859 5861 5862 5861 5861 5863 5866 5869 5872 5876 5878 5880 5881 5883 5884 5885 5886 5888 5890 5891
5709 5708 5707 5707 5706 5705 5705 5705 5706 5708 5708 5707 5706 5706 5707 5707 5708 5711 5715 5718 5717 5718 5721 5724 5726 5730 5734 5737 5741 5744 5747 5751 5756 5761 5764 5767 5769 5773 5776 5780 5784 5787 5791 5794 5797 5801 5804 5806 5808 5810 5813 5816 5818 5821 5823 5825 5827 5830 5833 5837 5841 5844 5846 5849 5851 5854 5857 5858 5859 5859 5860 5860 5860 5861 5864 5869 5872 5876 5880 5882 5882 5882 5883 5884 5886 5888
5706 5704 5703 5702 5702 5702 5701 5701 5701 5702 5703 5702 5702 5702 5702 5702 5703 5706 5707 5707 5708 5710 5712 5715 5718 5721 5725 5729 5733 5736 5740 5744 5748 5753 5757 5760 5763 5766 5769 5773 5777 5781 5784 5787 5790 5794 5797 5800 5802 5804 5807 5810 5812 5815 5818 5820 5823 5826 5829 5831 5835 5839 5842 5843 5846 5849 5852 5854 5854 5856 5857 5858 5858 5858 5859 5862 5867 5871 5875 5878 5879 5880 5880 5881 5882 5884
5703 5702 5701 5700 5699 5698 5698 5697 5697 5697 5697 5697 5697 5697 5697 5696 5698 5699 5700 5700 5702 5703 5705 5707 5709 5712 5716 5720 5724 5728 5732 5736 5740 5745 5750 5753 5756 5759 5762 5766 5770 5774 5777 5780 5783 5786 5790 5794 5796 5798 5801 5804 5807 5809 5812 5815 5818 5821 5824 5826 5829 5833 5836 5838 5840 5843 5846 5847 5849 5852 5854 5855 5856 5856 5856 5858 5862 5865 5869 5872 5874 5876 5877 5878 5878 5880
5701 5700 5699 5698 5696 5695 5695 5694 5693 5693 5693 5694 5693 5693 5692 5692 5692 5693 5693 5694 5695 5696 5698 5700 5702 5704 5707 5711 5716 5720 5725 5728 5732 5736 5742 5746 5749 5751 5754 5758 5762 5766 5770 5774 5776 5779 5783 5787 5790 5792 5795 5797 5800 5803 5806 5809 5813 5817 5819 5820 5823 5827 5830 5832 5835 5837 5839 5841 5843 5847 5850 5851 5852 5853 5854 5855 5858 5861 5864 5866 5869 5871 5873 5874 5875 5877
5699 5698 5697 5695 5694 5693 5692 5691 5690 5690 5690 5690 5690 5689 5688 5688 5688 5688 5689 5689 5689 5690 5691 5694 5695 5697 5700 5703 5707 5712 5716 5719 5723 5727 5732 5737 5741 5744 5746 5750 5754 5758 5762 5766 5769 5771 5775 5779 5783 5787 5789 5790 5793 5796 5800 5803 5807 5810 5813 5815 5817 5820 5824 5827 5830 5832 5834 5837 5839 5843 5846 5847 5848 5849 5851 5853 5855 5858 5860 5862 5864 5867 5869 5871 5872 5874
5696 5695 5694 5693 5692 5691 5690 5689 5688 5687 5686 5686 5686 5686 5685 5684 5684 5684 5685 5685 5685 5685 5686 5688 5689 5691 5693 5695 5698 5702 5706 5709 5714 5718 5723 5728 5733 5737 5739 5742 5745 5749 5753 5758 5762 5764 5767 5772 5776 5779 5782 5784 5785 5788 5792 5796 5800 5804 5806 5809 5811 5814 5817 5821 5825 5827 5829 5832 5835 5838 5841 5843 5844 5846 5848 5850 5852 5855 5857 5859 5861 5864 5866 5868 5869 5870
5694 5693 5692 5691 5690 5689 5687 5686 5685 5684 5683 5683 5683 5683 5682 5681 5681 5681 5681 5681 5681 5682 5682 5683 5684 5685 5687 5688 5690 5693 5697 5700 5704 5708 5713 5718 5723 5728 5732 5734 5737 5740 5744 5750 5754 5756 5760 5764 5768 5770 5774 5777 5779 5781 5784 5789 5793 5796 5800 5803 5805 5808 5812 5815 5819 5822 5824 5827 5830 5833 5836 5838 5839 5841 5843 5845 5848 5850 5852 5854 5857 5860 5863 5865 5865 5866
5692 5691 5690 5689 5688 5686 5685 5684 5683 5682 5681 5681 5680 5680 5679 5679 5678 5677 5677 5677 5677 5677 5677 5678 5679 5679 5680 5681 5682 5685 5688 5691 5694 5698 5703 5708 5713 5718 5723 5726 5729 5731 5734 5740 5745 5749 5752 5756 5760 5763 5766 5770 5773 5775 5779 5782 5785 5789 5792 5796 5799 5803 5806 5810 5813 5816 5819 5821 5824 5827 5830 5832 5834 5835 5838 5840 5842 5845 5847 5850 5853 5855 5858 5860 5861 5862
5689 5688 5687 5687 5686 5684 5683 5682 5681 5679 5678 5678 5678 5677 5676 5676 5675 5674 5674 5673 5673 5673 5673 5673 5674 5674 5674 5675 5676 5677 5680 5683 5685 5688 5692 5699 5704 5708 5713 5717 5721 5724 5726 5729 5735 5741 5744 5748 5752 5755 5759 5762 5765 5768 5772 5776 5779 5782 5786 5790 5793 5797 5800 5804 5808 5811 5814 5816 5819 5821 5824 5826 5828 5830 5832 5835 5838 5841 5844 5846 5849 5852 5854 5856 5857 5858
5685 5684 5683 5683 5683 5681 5680 5679 5678 5677 5676 5675 5675 5674 5674 5673 5672 5671 5670 5670 5669 5669 5669 5669 5668 5668 5668 5668 5669 5670 5672 5674 5676 5678 5683 5689 5694 5697 5702 5707 5712 5716 5719 5720 5725 5732 5736 5739 5742 5747 5751 5755 5758 5761 5765 5769 5772 5776 5779 5783 5787 5791 5794 5798 5802 5805 5808 5811 5813 5816 5818 5820 5822 5825 5827 5830 5832 5836 5839 5842 5845 5847 5849 5851 5852 5854